Temperature
9 11 11 10 11 12 12 12 12 11 10 10 11 12 12 11 10 10 10 10 9 9 9 9 9 9 9 9 9 9 9 10 9 10 10 9 9 9 9 9 9 9 9 10
11 9 9 9 10 11 12 12 11 10 10 10 11 11 12 11 10 10 10 10 9 8 8 9 9 9 9 9 9 9 9 9 9 9 9 9 9 9 9 9 9 9 9 9
9 8 9 10 10 11 11 11 11 10 10 10 11 13 12 11 10 9 9 9 8 8 8 8 8 9 9 9 9 9 9 9 9 9 8 8 8 8 8 8 8 8 8 9
9 8 9 10 9 11 10 9 9 10 11 12 11 12 14 12 11 10 9 9 9 8 8 8 8 8 9 8 8 8 8 8 8 8 8 8 8 8 8 8 8 8 8 8
8 8 9 9 8 9 9 9 9 10 10 10 10 11 14 11 12 12 11 9 9 8 8 8 8 8 8 8 8 8 8 8 8 8 8 8 7 7 7 7 7 7 8 8
8 8 8 8 8 8 8 9 9 9 10 11 10 11 13 13 12 12 11 9 8 8 8 8 8 8 8 8 8 8 8 8 8 7 7 7 7 7 7 7 7 7 7 7
9 8 8 8 9 9 9 10 11 11 11 12 8 9 11 12 11 11 10 9 8 8 8 8 8 8 8 8 8 8 8 7 7 7 7 7 7 7 7 7 7 7 7 7
9 8 8 8 9 9 9 10 11 12 12 12 9 10 12 11 9 8 8 8 7 7 7 8 8 8 8 8 8 8 7 7 7 7 7 7 6 6 6 6 6 6 6 6
9 8 8 8 8 9 9 9 9 10 9 10 12 11 11 10 10 9 8 8 8 7 7 7 8 8 7 7 7 7 7 7 7 7 6 6 6 6 6 6 6 5 5 5
9 8 8 8 8 8 9 9 9 9 10 12 13 12 12 11 11 10 9 9 8 7 7 8 8 8 7 7 7 7 7 7 6 6 6 6 6 6 6 5 5 5 5 5
8 9 8 8 8 9 8 8 9 9 9 11 12 13 12 11 10 10 10 9 8 7 7 8 8 8 7 7 7 7 7 6 6 6 6 6 6 5 5 5 5 5 5 5
8 8 8 9 8 8 8 9 9 10 9 9 10 12 11 10 9 9 9 8 8 7 7 7 7 7 7 7 7 7 7 6 6 6 6 6 5 5 5 5 5 5 4 4
8 8 9 9 8 7 8 8 8 8 9 9 10 12 10 9 9 8 8 8 7 7 7 7 7 7 7 7 7 7 6 6 6 5 5 5 5 5 5 5 4 4 4 4
7 8 9 10 10 9 8 8 7 8 8 9 10 11 11 10 10 9 9 8 7 7 7 7 7 7 7 7 7 6 6 6 6 5 5 5 5 4 4 4 4 4 4 3
8 8 7 7 7 7 7 8 7 7 9 9 11 10 11 11 10 9 8 7 7 7 7 7 7 6 6 6 6 6 6 6 5 5 5 5 4 4 4 4 4 3 3 3
7 7 6 6 6 6 6 7 7 7 8 8 9 9 11 10 8 8 7 7 7 7 7 6 6 6 6 6 6 6 6 6 5 5 5 4 4 4 4 3 3 3 3 3
6 6 6 7 7 7 8 9 8 7 7 8 8 10 10 9 8 8 7 7 6 6 6 6 6 6 6 6 6 6 6 6 5 5 5 4 4 4 4 3 3 3 3 2
6 6 6 6 7 8 10 7 7 7 8 8 8 9 9 8 7 7 7 6 7 7 6 6 6 6 6 6 6 6 6 5 5 5 5 4 4 4 3 3 3 2 2 2
5 6 6 6 7 9 10 7 7 7 8 8 7 8 8 6 6 8 8 7 7 6 6 6 6 6 6 6 6 5 5 5 5 5 5 4 4 4 3 3 3 2 2 2
3 5 6 6 6 9 10 7 6 7 9 8 7 7 7 6 8 9 7 7 6 6 6 6 6 5 5 5 5 5 5 5 5 5 5 4 4 3 3 3 2 2 2 1
4 4 5 5 6 8 9 6 6 8 10 7 6 7 6 6 8 7 6 6 6 6 6 5 5 5 5 5 5 5 5 5 5 4 4 4 3 3 3 2 2 2 1 1
6 5 5 5 5 7 7 6 7 9 7 6 6 6 6 6 6 6 5 6 5 5 5 5 5 5 5 5 5 5 5 5 4 4 4 3 3 3 2 2 2 1 1 1
5 7 7 7 8 8 6 7 7 6 6 6 6 6 5 5 5 5 5 5 5 5 5 5 5 5 5 5 4 4 4 4 4 4 3 3 3 2 2 2 1 1 0 0
5 4 5 5 7 7 6 6 6 5 5 5 5 5 5 4 4 4 5 5 5 5 5 5 5 5 5 5 4 4 4 4 3 3 3 3 2 2 2 1 1 1 0 -0
6 4 4 5 6 6 6 6 6 5 5 5 5 5 4 4 4 4 4 4 4 4 4 4 4 4 4 4 4 4 3 3 3 3 3 2 2 2 2 1 1 0 0 -0
4 4 5 7 7 6 6 5 5 5 4 4 4 4 4 4 4 4 4 4 4 4 4 4 4 4 4 4 4 4 3 3 3 2 2 2 2 1 1 1 0 0 -0 -1
Wind_Speed
4 6 6 4 3 4 7 7 6 2 2 1 3 5 5 5 7 8 8 7 7 6 4 2 2 1 0 1 3 4 5 5 4 3 3 2 3 3 4 5 7 7 8 7
7 7 5 4 6 8 7 8 5 3 2 1 2 6 5 5 7 7 7 7 7 5 4 4 3 2 1 1 2 3 4 4 4 3 3 2 2 2 3 4 6 7 8 8
8 4 3 5 7 8 6 4 4 2 1 1 2 4 5 4 5 5 6 6 6 6 5 5 4 3 2 2 2 2 3 3 3 3 2 1 1 1 2 3 4 6 7 7
8 4 4 7 5 3 4 3 3 2 2 0 2 3 4 4 5 5 5 6 6 5 5 5 5 4 4 3 2 2 2 2 3 2 2 2 2 1 2 3 3 5 6 7
5 3 4 5 3 2 4 3 2 1 1 1 1 3 3 2 5 5 5 5 5 5 5 5 5 5 4 3 2 2 2 2 2 1 1 1 1 1 1 2 3 4 4 6
5 2 3 3 3 3 4 3 3 1 1 2 2 3 4 3 4 3 2 3 3 4 5 5 4 4 4 3 3 3 2 2 1 1 1 1 1 1 1 2 3 3 3 4
4 3 2 1 2 2 1 1 1 2 2 2 2 4 6 2 3 4 3 2 3 3 4 5 5 5 4 4 4 3 3 2 2 2 1 1 2 2 1 2 2 3 3 4
2 2 2 2 1 0 1 1 1 2 2 1 3 6 4 1 2 4 4 4 3 3 4 5 5 5 5 5 5 4 4 4 3 2 2 2 2 1 1 1 2 2 3 3
2 1 1 2 2 0 1 1 2 1 1 3 4 5 6 3 3 4 4 3 3 3 4 5 5 5 5 5 5 5 5 4 4 3 3 2 2 2 1 1 1 1 2 3
1 1 0 1 1 2 2 2 1 1 2 3 4 4 3 3 3 3 3 3 3 2 3 4 5 5 5 5 5 5 6 5 4 4 3 3 3 2 2 1 1 1 2 2
1 1 1 1 2 2 2 2 2 1 2 3 4 2 1 3 2 2 2 3 3 4 4 5 5 5 5 5 5 5 6 6 5 4 4 4 3 3 2 2 1 1 1 1
1 0 1 2 0 1 3 3 4 3 3 3 4 4 3 2 2 3 4 5 5 5 5 5 5 5 5 5 5 6 6 6 6 5 5 5 4 4 3 3 2 1 1 1
1 1 1 2 3 3 4 4 5 3 2 5 5 4 3 1 3 4 5 6 6 6 6 5 5 5 5 5 5 6 6 7 6 5 5 5 5 5 5 4 3 2 2 1
1 3 4 4 1 2 5 7 8 7 5 7 10 11 6 6 7 7 8 8 7 7 6 6 6 5 5 5 5 5 6 6 6 6 6 6 6 6 5 4 3 3 2 2
1 3 5 8 8 7 10 11 12 14 13 10 11 12 14 11 10 10 9 8 8 7 6 6 6 6 6 5 5 5 6 6 6 7 7 7 6 6 5 5 4 4 3 3
1 3 3 5 4 7 12 15 16 16 16 18 19 18 13 9 8 8 8 7 8 8 8 7 7 7 7 6 6 6 6 6 7 8 8 7 7 6 6 6 5 5 5 4
2 2 2 4 5 8 9 10 12 9 11 11 14 11 7 7 8 8 8 8 9 9 8 8 8 7 7 6 6 6 6 6 7 8 8 8 8 7 7 7 6 6 6 5
4 3 2 5 6 6 0 2 5 9 10 12 13 11 9 9 10 10 9 9 9 8 8 8 7 7 7 6 6 6 5 6 7 8 8 8 8 8 7 7 7 7 6 6
6 4 3 3 5 9 5 2 4 5 6 7 12 13 10 8 8 7 4 6 8 9 8 8 7 7 7 6 5 5 6 6 7 8 9 8 8 8 8 8 8 7 6 6
4 4 4 4 4 5 1 2 2 3 4 1 5 7 5 4 6 6 4 6 8 8 7 7 7 7 7 6 5 6 7 7 8 9 8 8 8 9 9 8 8 6 6 6
5 5 8 8 7 8 4 3 4 3 2 1 3 5 4 6 8 8 8 9 9 9 8 7 7 7 7 6 5 7 7 9 8 7 7 8 8 9 9 8 7 7 6 6
8 7 8 7 7 7 4 6 5 4 3 4 5 6 7 9 11 11 11 10 9 9 8 7 7 7 7 6 6 8 9 8 6 6 7 8 8 7 7 8 7 7 7 6
8 8 5 9 8 2 4 6 5 4 6 7 7 8 9 11 12 12 12 11 10 9 8 7 8 8 7 6 7 9 9 6 6 7 8 7 7 7 7 8 8 7 6 6
5 5 6 8 11 11 10 11 10 9 10 11 10 11 10 12 13 13 11 11 10 9 8 7 8 9 9 7 8 9 8 6 7 8 8 7 7 7 8 7 7 7 7 7
6 6 6 10 11 10 8 7 8 9 9 10 11 10 11 12 13 12 12 11 10 9 8 7 8 9 10 9 8 8 7 6 8 8 7 7 7 7 7 7 7 8 8 8
8 10 8 10 8 7 10 8 9 10 11 11 11 11 11 10 12 12 11 11 10 9 9 8 9 10 10 9 9 8 7 7 8 7 7 7 6 6 6 6 6 9 9 10
Wind_Direction
47 96 102 95 80 115 138 143 135 105 28 292 230 238 233 213 214 222 222 221 220 225 223 208 205 207 321 7 6 6 5 4 358 352 354 358 7 8 10 15 11 6 3 358
93 72 63 87 101 112 125 133 124 109 49 322 263 265 250 218 216 223 225 225 226 225 219 212 213 211 239 314 347 354 358 357 357 352 341 329 331 345 4 11 12 9 6 4
89 75 83 106 105 106 92 122 126 125 83 108 307 254 211 200 213 222 228 230 228 225 225 219 216 220 233 264 312 330 341 345 347 341 332 321 327 329 4 8 8 7 5 4
72 56 90 91 74 92 100 88 120 136 195 179 343 264 217 205 224 228 228 226 228 224 226 223 221 226 234 251 273 296 312 330 339 337 334 341 344 342 348 352 352 356 5 6
79 52 60 70 46 47 100 110 111 108 110 219 199 255 246 193 230 225 219 221 225 224 225 227 226 231 238 243 252 268 286 306 324 322 324 318 317 328 341 353 353 357 4 9
76 48 32 53 57 72 126 123 106 111 206 233 209 243 262 211 216 206 197 215 227 228 228 233 232 232 236 235 238 247 260 278 296 285 273 283 290 299 324 352 354 354 357 2
70 64 46 24 98 95 151 191 186 194 216 227 145 244 256 246 236 239 240 246 249 233 228 232 233 234 238 237 235 235 242 256 265 261 251 249 263 281 308 331 345 347 350 353
104 100 30 12 1 88 61 318 301 259 253 258 196 243 259 264 267 257 254 256 256 236 231 238 240 239 242 242 236 231 233 241 245 246 249 250 247 253 280 313 327 338 341 346
91 105 40 20 11 349 124 93 13 26 327 272 249 267 280 224 235 232 229 233 240 240 239 245 245 242 242 241 235 230 229 232 233 236 238 240 234 227 241 274 309 329 339 343
59 133 85 2 156 60 12 133 177 218 264 272 272 257 252 215 204 202 212 234 256 269 266 258 251 247 244 244 240 231 229 230 230 228 228 232 230 222 221 234 282 320 341 352
47 135 172 210 220 207 161 176 210 219 271 276 287 275 170 216 221 248 261 278 279 285 283 271 261 253 251 247 238 229 225 223 221 220 219 220 222 216 210 214 236 276 318 341
52 155 221 229 71 316 246 229 211 247 244 244 275 280 94 218 262 276 289 298 293 290 288 278 270 259 253 248 239 230 225 223 222 217 213 214 214 212 210 211 218 230 263 304
173 206 237 189 189 195 228 219 217 239 249 231 246 264 114 256 289 283 287 295 296 294 293 285 274 263 260 254 246 236 229 225 220 213 212 213 212 214 216 214 212 215 232 259
207 233 243 263 300 205 233 226 213 211 228 243 243 265 269 286 296 296 295 293 290 288 285 283 279 275 268 259 252 246 238 227 218 212 212 217 219 218 218 215 213 214 220 236
266 257 256 269 271 260 255 247 228 224 233 249 265 271 280 291 293 292 291 289 288 286 286 284 283 282 275 266 259 251 243 229 218 215 217 221 221 217 215 212 212 213 217 226
271 265 284 279 260 265 264 253 240 238 242 249 265 276 284 292 288 287 285 283 282 283 287 287 283 281 276 268 262 255 246 230 219 219 221 219 214 211 211 213 212 213 218 223
214 234 282 280 308 296 267 247 222 221 224 233 248 260 284 291 291 291 288 283 281 285 286 283 280 277 276 272 263 256 250 231 220 222 222 216 212 213 214 212 213 216 219 222
206 204 255 295 311 258 283 88 211 226 245 235 248 265 278 287 297 289 278 273 281 287 287 285 281 278 277 274 263 257 247 229 223 224 223 218 214 216 215 214 218 222 223 225
216 213 240 266 286 281 286 209 193 221 267 237 241 262 277 297 300 285 270 268 279 286 286 283 277 275 274 270 262 251 240 228 225 226 225 219 215 216 215 217 220 221 221 225
180 217 235 235 261 265 325 132 181 226 265 229 229 260 276 291 297 312 333 305 295 291 285 281 279 275 268 264 252 242 239 232 232 230 227 220 216 216 218 219 219 217 219 225
173 199 220 230 246 269 270 157 165 244 332 360 258 265 255 253 279 305 307 299 295 292 287 281 274 268 264 260 244 242 243 241 241 236 227 220 216 217 219 217 213 212 215 221
195 192 203 203 222 255 167 158 209 280 326 301 287 280 273 276 287 292 293 292 294 293 288 281 272 269 268 255 243 247 249 249 242 230 224 221 217 214 213 212 210 210 212 220
217 215 212 210 229 291 182 220 264 291 287 291 289 287 285 286 287 290 290 290 290 288 285 279 272 273 270 254 242 250 256 252 236 227 226 223 218 214 211 210 209 209 213 221
230 216 233 253 262 266 266 267 269 269 273 283 284 284 283 282 285 287 287 287 287 286 282 279 274 272 271 263 252 251 256 244 229 230 228 221 217 215 212 212 211 211 213 219
238 194 226 255 273 286 273 260 275 286 285 285 285 281 280 282 282 283 285 286 285 284 280 273 268 269 272 272 264 258 251 235 231 232 229 223 218 217 216 216 217 219 223 223
219 213 226 257 268 271 286 298 302 295 293 294 293 292 288 281 280 285 285 285 285 282 280 275 270 269 272 272 268 260 245 231 229 232 229 223 219 217 217 219 227 227 231 232
Height
1503 1504 1506 1508 1508 1506 1506 1507 1511 1517 1521 1520 1516 1516 1517 1519 1520 1520 1520 1521 1522 1522 1523 1523 1523 1523 1523 1523 1522 1521 1520 1519 1518 1517 1516 1515 1514 1513 1512 1511 1509 1508 1507 1505
1505 1510 1514 1513 1512 1510 1509 1510 1513 1519 1521 1519 1517 1514 1514 1516 1516 1517 1518 1519 1519 1520 1520 1521 1521 1521 1521 1521 1521 1520 1519 1518 1517 1515 1514 1513 1512 1511 1510 1509 1508 1506 1505 1503
1509 1517 1517 1514 1513 1512 1514 1513 1515 1518 1520 1521 1518 1509 1510 1512 1515 1515 1516 1516 1517 1517 1518 1518 1519 1519 1519 1519 1519 1518 1517 1516 1515 1514 1513 1512 1511 1510 1509 1507 1506 1505 1503 1502
1516 1519 1518 1516 1517 1514 1517 1521 1521 1520 1516 1515 1519 1511 1503 1508 1510 1512 1513 1514 1514 1515 1516 1516 1517 1517 1517 1517 1517 1516 1515 1514 1513 1512 1511 1510 1509 1508 1507 1506 1504 1503 1502 1500
1520 1522 1520 1519 1522 1520 1521 1523 1522 1521 1519 1519 1519 1516 1501 1507 1506 1507 1510 1511 1512 1513 1514 1514 1515 1515 1515 1515 1514 1514 1513 1512 1511 1510 1509 1508 1507 1506 1505 1504 1503 1501 1500 1498
1523 1525 1524 1524 1525 1524 1524 1524 1523 1522 1518 1518 1520 1517 1503 1501 1503 1505 1508 1509 1510 1511 1512 1512 1513 1513 1513 1512 1512 1511 1511 1510 1509 1508 1507 1506 1505 1504 1503 1502 1501 1500 1498 1496
1523 1525 1526 1526 1524 1524 1523 1520 1518 1516 1515 1511 1525 1521 1506 1501 1504 1506 1507 1508 1509 1509 1510 1510 1510 1510 1510 1510 1509 1509 1508 1507 1506 1505 1505 1504 1503 1502 1501 1500 1499 1498 1496 1494
1522 1525 1527 1527 1525 1523 1524 1522 1519 1514 1508 1507 1522 1514 1501 1503 1505 1506 1506 1507 1507 1507 1507 1507 1508 1508 1508 1507 1507 1506 1506 1505 1504 1503 1502 1502 1501 1500 1499 1498 1497 1496 1494 1492
1520 1525 1529 1529 1528 1526 1523 1523 1526 1522 1523 1516 1504 1506 1501 1502 1503 1504 1505 1505 1505 1505 1505 1505 1505 1505 1505 1505 1504 1504 1503 1502 1502 1501 1500 1500 1499 1498 1497 1496 1495 1494 1492 1491
1524 1527 1528 1529 1529 1529 1528 1526 1525 1524 1518 1507 1500 1500 1497 1498 1499 1501 1503 1503 1504 1504 1503 1503 1503 1503 1502 1502 1501 1501 1500 1499 1499 1498 1498 1497 1497 1496 1495 1494 1493 1492 1490 1489
1525 1525 1528 1527 1526 1524 1528 1528 1525 1523 1521 1512 1501 1495 1495 1497 1499 1501 1502 1502 1502 1502 1501 1501 1500 1500 1499 1499 1498 1497 1497 1496 1496 1496 1495 1495 1494 1493 1492 1492 1491 1490 1488 1487
1527 1525 1524 1524 1528 1528 1526 1524 1524 1520 1520 1520 1511 1500 1497 1499 1500 1501 1501 1501 1501 1500 1499 1498 1497 1497 1496 1495 1495 1494 1494 1493 1493 1493 1492 1492 1491 1490 1490 1489 1488 1487 1486 1484
1527 1525 1522 1520 1527 1529 1526 1525 1525 1523 1521 1517 1511 1498 1498 1499 1500 1500 1500 1499 1499 1498 1496 1496 1495 1494 1493 1492 1492 1491 1490 1490 1489 1489 1489 1488 1488 1487 1487 1486 1485 1484 1483 1482
1528 1524 1522 1516 1514 1519 1521 1521 1522 1522 1519 1510 1505 1495 1494 1496 1497 1498 1498 1497 1496 1495 1494 1492 1491 1490 1490 1489 1488 1487 1487 1486 1485 1485 1485 1485 1484 1484 1483 1483 1482 1481 1480 1479
1528 1524 1523 1521 1521 1521 1519 1517 1518 1518 1511 1507 1496 1496 1493 1495 1496 1496 1495 1494 1493 1492 1491 1489 1488 1487 1486 1485 1484 1484 1483 1482 1482 1481 1481 1481 1481 1480 1480 1479 1479 1478 1477 1476
1528 1525 1525 1522 1520 1520 1517 1511 1511 1511 1509 1504 1500 1496 1491 1493 1494 1493 1492 1491 1490 1489 1488 1486 1485 1484 1483 1481 1480 1480 1479 1478 1478 1477 1477 1477 1477 1477 1476 1476 1475 1474 1473 1473
1527 1526 1524 1516 1517 1515 1504 1497 1501 1502 1500 1499 1497 1491 1491 1492 1491 1491 1489 1488 1487 1485 1484 1483 1482 1480 1479 1478 1477 1476 1475 1474 1474 1473 1473 1473 1473 1472 1472 1472 1471 1470 1470 1469
1527 1526 1524 1520 1515 1509 1493 1498 1497 1497 1495 1495 1493 1490 1490 1490 1489 1487 1486 1484 1483 1482 1481 1479 1478 1477 1476 1474 1473 1472 1471 1470 1469 1469 1469 1468 1468 1468 1468 1467 1467 1466 1466 1465
1527 1525 1523 1521 1512 1499 1491 1496 1497 1496 1490 1489 1490 1488 1489 1489 1487 1483 1482 1481 1480 1479 1477 1476 1474 1473 1472 1471 1469 1468 1467 1466 1465 1464 1464 1464 1464 1463 1463 1463 1462 1462 1461 1460
1528 1526 1523 1520 1515 1498 1489 1495 1496 1497 1487 1486 1486 1486 1486 1487 1483 1479 1479 1478 1477 1475 1473 1472 1470 1469 1467 1466 1465 1464 1463 1461 1460 1460 1459 1459 1459 1459 1458 1458 1458 1457 1457 1456
1524 1524 1521 1517 1512 1495 1490 1494 1496 1492 1483 1486 1485 1485 1485 1484 1481 1479 1477 1475 1473 1471 1469 1468 1466 1464 1463 1462 1460 1459 1458 1457 1456 1455 1455 1454 1454 1454 1454 1453 1453 1452 1452 1451
1511 1512 1513 1511 1510 1496 1489 1491 1490 1485 1485 1484 1483 1483 1482 1480 1478 1475 1473 1471 1469 1467 1465 1463 1461 1460 1458 1457 1455 1454 1453 1452 1451 1450 1449 1449 1449 1449 1449 1448 1448 1447 1447 1446
1505 1501 1498 1498 1490 1486 1486 1486 1485 1484 1483 1482 1481 1480 1478 1476 1473 1471 1469 1466 1464 1462 1460 1459 1457 1455 1454 1452 1451 1449 1448 1447 1446 1445 1444 1444 1444 1443 1443 1443 1443 1442 1441 1441
1500 1501 1499 1494 1485 1484 1484 1483 1482 1482 1480 1478 1477 1475 1473 1471 1468 1466 1464 1461 1459 1457 1455 1453 1451 1450 1448 1447 1446 1444 1443 1441 1440 1439 1439 1438 1438 1438 1438 1437 1437 1437 1436 1435
1493 1496 1494 1488 1482 1481 1479 1478 1478 1477 1475 1474 1472 1470 1468 1466 1463 1461 1458 1456 1454 1452 1450 1448 1446 1444 1443 1441 1440 1438 1437 1436 1434 1434 1433 1432 1432 1432 1432 1432 1431 1431 1431 1430
1487 1487 1485 1478 1478 1478 1476 1475 1474 1472 1471 1469 1467 1464 1463 1461 1458 1456 1453 1451 1449 1447 1445 1443 1441 1439 1437 1435 1434 1433 1431 1430 1429 1427 1427 1426 1426 1426 1425 1425 1425 1425 1425 1424